Location: Horowhenua
(40.7500°S, 175.3333°E)
Time: 05:51:17
(UTC+00:00)

ADEOS II - Pass Details

Date: 28 January 2023
Orbit: 799 x 799 km, 98.6° (Epoch: 01 April)

Event Time Altitude Azimuth Distance (km) Brightness Sun altitude
Exits shadow 13:25:33 68° 147° (SSE) 873 2.3 -29.8°
Drops below altitude 10° 13:30:23 10° 189° (S) 2,407 5.3 -29.5°
Sets 13:32:44 0° 191° (S) 3,345 6.2 -29.4°
